Regional Weather Roundup
Issued by NWS

Home | Current Version | Previous Version | Graphics & Text | Print | Product List | Glossary On
Versions: 1 2 3 4 5 6 7 8 9 10 11 12 13 14 15 16 17 18 19 20 21 22 23 24 25 26 27
000
ASUS45 KBOU 221507
RWRCO

WEATHER ROUNDUP FOR COLORADO
NATIONAL WEATHER SERVICE DENVER/BOULDER CO
900 AM MDT SUN OCT 22 2017

NOTE: "FAIR" INDICATES FEW OR NO CLOUDS BELOW 12000 FEET WITH NO
SIGNIFICANT WEATHER AND/OR OBSTRUCTIONS TO VISIBILITY.

COZ001>005-013-030-031-221600-
...NORTHWEST COLORADO...

CITY           SKY/WX    TMP DP  RH WIND       PRES   REMARKS
CRAIG          FAIR      31  26  82 W3        30.42R
HAYDEN         FAIR      35  23  61 E3        30.44R
MEEKER         FAIR      32  26  78 NE3       30.43R
RABBIT EARS PA CLOUDY    23  19  86 W13G23    30.39S WCI  11
STEAMBOAT SPGS PTSUNNY   32  26  79 CALM      30.42R
WALDEN         NOT AVBL
$$

COZ006>008-011-221600-
...WEST CENTRAL VALLEYS...

CITY           SKY/WX    TMP DP  RH WIND       PRES   REMARKS
GRAND JUNCTION FAIR      39  19  44 SE7       30.44R
MONTROSE       FAIR      34  18  52 S5        30.49R WCI  30
EAGLE          FAIR      27  21  78 SE3       30.49S
RIFLE          FAIR      32  24  72 CALM      30.48R
DELTA          FAIR      35  18  50 S3        30.49R
NUCLA          FAIR      34   9  35 SE3       30.50R
$$

COZ017>023-064>068-221600-
...SOUTHWEST COLORADO...

CITY           SKY/WX    TMP DP  RH WIND       PRES   REMARKS
DURANGO        FAIR      34  11  38 NE6       30.43R WCI  29
CORTEZ         FAIR      38  12  34 NE6       30.43R
PAGOSA SPRINGS FAIR      36   6  28 CALM      30.44R
TELLURIDE      FAIR      35  20  54 CALM      30.51R
WOLF CREEK PAS FAIR      32  18  55 W3        30.58R
$$

COZ009-010-012-014-032>034-037-058>063-221600-
...CENTRAL COLORADO...

CITY           SKY/WX    TMP DP  RH WIND       PRES   REMARKS
ASPEN          FAIR      30  22  72 S6        30.47R WCI  24
BUENA VISTA    FAIR      44  16  32 NW22G29   30.35S
COPPER MTN     CLOUDY    28  21  74 MISG      30.47R
BERTHOUD PASS  HAZE      18   7  62 NW40G52   30.35R VSB<1/4 WCI  -4
COTTONWOOD PAS FAIR      41  21  45 NW5       30.39R
GUNNISON       FAIR      22  16  78 CALM      30.51R
KREMMLING      PTSUNNY   36  25  64 CALM      30.43S
LEADVILLE      FAIR      27  14  58 VRB3      30.43R
MONARCH PASS   FAIR      19  10  68 W46       30.53R WCI  -3
SALIDA         FAIR      40  15  35 N6        30.43R
SUNLIGHT       FAIR      23  16  74 SW6       30.53R WCI  16
WILKERSON PASS FAIR      28  18  64 W5        30.42R WCI  23
$$

COZ069>075-221600-
...SAN LUIS VALLEY/SANGRE DE CRISTO MOUNTAINS...

CITY           SKY/WX    TMP DP  RH WIND       PRES   REMARKS
ALAMOSA        FAIR      28  13  53 W3        30.44R
DEL NORTE      FAIR      28   8  43 W9        30.46R WCI  19
LA VETA PASS   FAIR      34  14  44 S30G43    30.51R WCI  20
SAGUACHE       FAIR      34  14  44 CALM      30.46R
$$

COZ035-036-038>040-221600-
...NORTHERN COLORADO FRONT RANGE...

CITY           SKY/WX    TMP DP  RH WIND       PRES   REMARKS
DENVER INTL AP PTSUNNY   49  20  31 SW10      30.17S
DMNS CITY PARK   N/A     44  19  36 E7G13     30.18R
AURORA         PTSUNNY   46  20  36 S14       30.19S
FRONT RANGE AP PTSUNNY   46  25  42 S7        30.19R
ERIE MUNI ARPT FAIR      38  26  61 CALM      30.22R
BOULDER MUN AP FAIR      41  23  48 SE6       30.15R
CENTENNIAL     PTSUNNY   46  19  34 E10       30.20R
BROOMFIELD     PTSUNNY   46  21  36 VRB3      30.17S
FORT COLLINS   FAIR      37  24  59 SW3       30.19R
LONGMONT       FAIR      37  28  68 CALM      30.18S HAZE
$$

COZ041-046-047-076>085-087-088-221600-
...PIKES PEAK/PALMER DIVIDE AND SOUTHERN FOOTHILLS...

CITY           SKY/WX    TMP DP  RH WIND       PRES   REMARKS
COLO. SPRINGS  PTSUNNY   43  11  27 NE5       30.27R
A. F. ACADEMY  FAIR      37   9  31 CALM      30.25R
SCHRIEVER AFB  FAIR      41   9  26 NE3       30.26R
CHEYENNE MTN   FAIR      43  12  28 CALM      30.21R
ELLICOTT         N/A    N/A N/A N/A CALM      30.24R
FALCON         FAIR      40   8  25 CALM      30.27S
FORT CARSON    FAIR      41  13  31 N8        30.25R
LIMON          FAIR      44  13  28 S9        30.24R
MONUMENT HILL  FAIR      41  14  33 SW12G18   30.25S
CANON CITY     FAIR      52  18  25 W14       30.26R
WALSENBURG     FAIR      55  14  19 NW26G36   30.26R
TRINIDAD       FAIR      47  23  38 W9        30.28R
$$

COZ042>045-048>051-090-091-221600-
...NORTHEAST COLORADO...

CITY           SKY/WX    TMP DP  RH WIND       PRES   REMARKS
GREELEY ARPT   FAIR      34  24  67 E3        30.19R
AKRON          FAIR      47  14  26 SW16      30.18R
BURLINGTON     FAIR      49  18  29 SW17      30.23R
WRAY           FAIR      45  27  49 SW9       30.19F
YUMA           NOT AVBL
STERLING       FAIR      37  25  60 SW5       30.17R
HOLYOKE        FAIR      46  23  39 SW8       30.18S
FORT MORGAN    FAIR      36  19  50 CALM      30.19R
$$

COZ086-089-092>099-221600-
...SOUTHEAST COLORADO...

CITY           SKY/WX    TMP DP  RH WIND       PRES   REMARKS
PUEBLO         FAIR      39  20  46 S5        30.25R
LA JUNTA       FAIR      39  23  52 NW3       30.25R
LAMAR          FAIR      39  21  48 CALM      30.24S
SPRINGFIELD      N/A     49  20  31 SW9       30.28R
$$




USA.gov is the U.S. government's official web portal to all federal, state and local government web resources and services.